Chicago Midway, IL

10:30 AM CST on December 08, 2019 (GMT -0600)
Chicago-Midway

Weather History for KMDW - November, 2019

Change the Weather History Date:

Tuesday, November 19, 2019

  Actual Average Record
Temperature  
Mean Temperature 39 °F 40 °F  
Max Temperature 41 °F 47 °F 77 °F (1930)
Min Temperature 36 °F 33 °F 17 °F (1951)
Degree Days  
Heating Degree Days 26 25  
Month to date heating degree days 588 396  
Since 1 July heating degree days 979 827  
Cooling Degree Days 0 0  
Month to date cooling degree days 0 0  
Year to date cooling degree days 1131 1045  
Moisture  
Dew Point 35 °F    
Average Humidity 84    
Maximum Humidity 97    
Minimum Humidity 67    
Precipitation  
Precipitation 0.03 in 0.11 in 0.74 in (1941)
Month to date precipitation 0.18 2.19  
Year to date precipitation 43.00 35.29  
Sea Level Pressure  
Sea Level Pressure 29.87 in    
Wind  
Wind Speed 4 mph (WNW)    
Max Wind Speed 8 mph    
Max Gust Speed 12 mph    
Visibility 5 miles    
Events Rain    
T = Trace of Precipitation, MM = Missing Value Source: NWS Daily Summary

Daily Weather History Graph

Daily Weather History Graph

Search for Another Location

Airport or City:

Astronomy

Nov. 19, 2019 Rise Set
Actual Time 6:44 AM CST 4:27 PM CST
Civil Twilight 6:14 AM CST 4:57 PM CST
Nautical Twilight 5:40 AM CST 5:31 PM CST
Astronomical Twilight 5:07 AM CST 6:04 PM CST
Moon 11:23 PM CST (11/19) 12:54 PM CST (11/19)
Length of Visible Light 10h 42m
Length of Day
9h 42m
Waning Gibbous, 51% of the Moon is Illuminated
Nov 19
Waning Gibbous
Nov 19
Last Quarter
Nov 26
New
Dec 4
First Quarter
Dec 11
Full

Hourly Weather History & Observations

Time (CST) Temp. Windchill Dew Point Humidity Pressure Visibility Wind Dir Wind Speed Gust Speed Precip Events Conditions
12:53 AM 37.0 °F 33.3 °F 30.9 °F 79% 29.78 in 10.0 mi SSW 4.6 mph - N/A   Overcast
1:53 AM 37.0 °F 32.4 °F 30.9 °F 79% 29.78 in 9.0 mi SSW 5.8 mph - N/A   Overcast
2:53 AM 36.0 °F 32.1 °F 30.0 °F 79% 29.76 in 9.0 mi South 4.6 mph - N/A   Overcast
3:53 AM 36.0 °F 33.3 °F 30.0 °F 79% 29.77 in 9.0 mi SW 3.5 mph - N/A   Overcast
4:53 AM 36.0 °F 32.1 °F 30.0 °F 79% 29.78 in 9.0 mi West 4.6 mph - N/A   Overcast
5:53 AM 37.0 °F 33.3 °F 30.0 °F 76% 29.77 in 8.0 mi East 4.6 mph - N/A   Overcast
6:53 AM 37.0 °F - 30.9 °F 79% 29.80 in 8.0 mi Calm Calm - N/A   Overcast
7:53 AM 37.9 °F 34.4 °F 30.9 °F 76% 29.80 in 9.0 mi East 4.6 mph - N/A   Overcast
8:53 AM 39.0 °F 34.8 °F 32.0 °F 76% 29.81 in 8.0 mi ESE 5.8 mph - N/A   Overcast
9:53 AM 39.9 °F 36.7 °F 33.1 °F 77% 29.82 in 9.0 mi SE 4.6 mph - N/A   Overcast
10:53 AM 41.0 °F - 34.0 °F 76% 29.82 in 9.0 mi Calm Calm - N/A   Overcast
11:53 AM 41.0 °F 38.0 °F 34.0 °F 76% 29.82 in 9.0 mi NE 4.6 mph - 0.01 in Rain Light Rain
12:41 PM 41.0 °F 38.0 °F 35.1 °F 79% 29.81 in 5.0 mi North 4.6 mph - 0.00 in Rain Light Rain
1:10 PM 39.9 °F 36.7 °F 36.0 °F 86% 29.82 in 3.0 mi North 4.6 mph - 0.00 in Rain Light Rain
1:44 PM 39.9 °F 37.8 °F 36.0 °F 86% 29.83 in 2.0 mi NNE 3.5 mph - 0.00 in Rain Light Rain
1:53 PM 39.9 °F - 36.0 °F 86% 29.86 in 1.8 mi Calm Calm - 0.00 in Rain Light Rain
2:47 PM 39.2 °F 37.0 °F 37.4 °F 93% 29.85 in 2.0 mi NNW 3.5 mph - 0.01 in Rain Light Rain
2:53 PM 39.9 °F 37.8 °F 37.0 °F 89% 29.88 in 2.0 mi NW 3.5 mph - 0.01 in Rain Light Rain
3:34 PM 39.9 °F 37.8 °F 37.0 °F 89% 29.88 in 3.0 mi WNW 3.5 mph - 0.00 in Rain Light Rain
3:53 PM 39.9 °F 37.8 °F 37.9 °F 93% 29.91 in 3.0 mi West 3.5 mph - 0.00 in Rain Light Rain
4:00 PM 39.9 °F 37.8 °F 37.9 °F 93% 29.89 in 2.5 mi West 3.5 mph - 0.00 in Rain Light Rain
4:13 PM 39.9 °F 35.8 °F 37.0 °F 89% 29.90 in 3.0 mi West 5.8 mph - 0.01 in Rain Light Rain
4:34 PM 39.9 °F 37.8 °F 39.0 °F 97% 29.90 in 2.0 mi NW 3.5 mph - 0.01 in Rain Light Rain
4:53 PM 39.9 °F 36.7 °F 37.9 °F 93% 29.94 in 3.0 mi WNW 4.6 mph - 0.01 in Rain Light Rain
5:53 PM 41.0 °F 39.0 °F 37.9 °F 89% 29.95 in 3.0 mi West 3.5 mph - 0.00 in   Light Drizzle
6:53 PM 41.0 °F 39.0 °F 37.9 °F 89% 29.98 in 4.0 mi West 3.5 mph - 0.00 in   Overcast
7:12 PM 41.0 °F 39.0 °F 37.9 °F 89% 29.95 in 5.0 mi WNW 3.5 mph - N/A   Overcast
7:53 PM 41.0 °F 39.0 °F 37.9 °F 89% 29.98 in 5.0 mi WNW 3.5 mph - N/A   Overcast
8:53 PM 39.9 °F 37.8 °F 37.0 °F 89% 30.00 in 5.0 mi WNW 3.5 mph - N/A   Overcast
9:53 PM 39.9 °F 36.7 °F 37.0 °F 89% 30.01 in 5.0 mi West 4.6 mph - N/A   Overcast
10:53 PM 39.9 °F 35.8 °F 36.0 °F 86% 30.03 in 4.0 mi West 5.8 mph - N/A   Overcast
11:53 PM 39.9 °F 37.8 °F 37.0 °F 89% 30.03 in 4.0 mi NNW 3.5 mph - N/A   Overcast